Погода в Армавире

Погода в Армавире : погода сейчас, прогноз погоды и архив. Всё, что Вы хотите узнать о погоде в Армавире!

Поиск расширенной информации на нашем сайте:

Другие новости

Новости СМИ2

Главная страница сайта

Новости сайта

03.07.2017

Напоминаем, что на нашем специализированном сайте Метеоцентр.Азия вы можете получить высокодетализированные автоматические прогнозы погоды по пунктам России, СНГ и мира в авиационном формате (включающие направление и скорость ветра, видимость, явления погоды, количество и форму облачности, нижнюю и верхнюю границу облачности).


Погода в Армавире - сегодня

Время (UTC), дата Ветер
(°,м/с) 
Видим.   Явления Облачность Т
(°С)
Тd
(°С)
f(%) Тe
(°С)
Pmin
(гПа)
dP
(гПа)
Po
(мм)
O2
(г/м3)
Тmin Tmax R s Состояние
почвы
15 13.01.18 070 (В) 4{10}  10 км    10/0 средняя 
[Ac As]
-7.1 -10.3 78 -11  1033.1  0.5  759  315    -5.8       
18 13.01.18 060 (СВ) 10 км  слаб. ливневой снег  10/10 600 м кучево-дожд. 
[Cb cap]
-7 -10.1 79 -11  1032.8  -0.3  759  315           
21 13.01.18 060 (СВ) 4{10}  10 км  {ливн. осадки}  10/0 средняя, верхняя 
[Ac trans|Ci]
-7.1 -9.8 81 -11  1031.6  -1.2  758  315           
00 14.01.18 070 (В) 10 км  {ливн. осадки}  8/8 600 м 
[Sc]
-6.5 -9.6 79 -9  1030.2  -1.3  757  313           
03 14.01.18 060 (СВ) 10 км    9/9 600 м 
[Sc]
-7.5 -10.6 78 -10  1028.9  -1.3  756  314  -7.6    0.0  равномерный
сухой снег
100% 
06 14.01.18 080 (В) 6-13{13}  10 км  позёмок  10/10 300 м 
[Cu Sc]
-5.4 -9.6 72 -10  1028.1  -0.7  756  312           
09 14.01.18 080 (В) 6-11{13}  10 км  позёмок  9/8 300 м средняя 
[Cu Sc|Ac trans]
-3.2 -7.9 70 -7  1026.7  -1.1  755  309           
12 14.01.18 080 (В) 6-14{14}  10 км  позёмок  10/8 300 м средняя 
[Cu Sc|Ac und]
-3.7 -7.9 73 -8  1026.5  -0.2  755  309           
15 14.01.18 080 (В) 10 км  позёмок  9/0 средняя 
[Ac trans]
-5 -8.6 76 -9  1026.6  755  311    -2.6       
18 14.01.18 080 (В) 5{12}  10 км    6/3 300 м средняя 
[St|Ac trans]
-5.1 -8.8 75 -9  1026.4  -0.2  754  311           
21 14.01.18 100 (В) 6-13{15}  10 км  позёмок  1/1 300 м 
[St]
-4.5 -9 71 -9  1026.5  -0.1  755  310           
00 15.01.18 110 (В) 6-10{14}  10 км  позёмок  10/10 600 м 
[Sc]
-4.7 -8.7 74 -9  1026.7  0.2  755  310           
03 15.01.18 120 (ЮВ) 10 км  позёмок  10/10 600 м 
[Sc]
-4.4 -8.2 75 -9  1026.9  0.2  755  310  -5.2         
06 15.01.18 120 (ЮВ) 6-10{14}  10 км  позёмок  10/3 600 м средняя, верхняя 
[Sc|Ac As|Ci fib]
-4 -8 74 -8  1027.7  0.7  755  310           
09 15.01.18 120 (ЮВ) 4{10}  10 км    10/0 средняя 
[Ac As]
-3.4 -7.4 74 -6  1028.8  1.2  756  309           
12 15.01.18 120 (ЮВ) 4000 м  слаб. снег  10/10 600 м 
[Ns]
-2.4 -5.1 82 -4  1030.3  1.5  757  308           
15 15.01.18 140 (ЮВ) 10 км  слаб. снег  10/10 600 м 
[Ns]
-2.9 -4.2 91 -5  1031.8  1.4  758  309    -2.3  0.7     
18 15.01.18 140 (ЮВ) 10 км  {снег}  10/10 600 м 
[Sc]
-2.7 -4.9 85 -5  1032.1  0.4  759  309           
21 15.01.18 130 (ЮВ) 10 км    10/0 средняя 
[Ac und]
-2.7 -4.6 87 -5  1032  -0.2  759  309           
00 16.01.18 130 (ЮВ) 10 км    9/0 средняя 
[Ac trans]
-2 -4.7 82 -4  1031  -0.8  758  308           
03 16.01.18 130 (ЮВ) 10 км    10/10 600 м 
[Sc]
-2.1 -4.7 82 -4  1029.8  -1.3  757  308  -3    0.2  неравномерный
сухой снег
100% 
06 16.01.18 140 (ЮВ) 10 км  позёмок  10/0 средняя 
[Ac As]
-2.4 -5.7 78 -5  1029.1  -0.7  757  308           
09 16.01.18 140 (ЮВ) 10 км    10/0 средняя, верхняя 
[Ac As|Cs]
-1 -5.9 69 -4  1027.5  -1.4  755  306           
12 16.01.18 120 (ЮВ) 10 км    5/0 верхняя 
[Cc]
+0 -5.6 66 -2  1025.3  -2.1  754  304           
15 16.01.18 130 (ЮВ) 6-11{11}  10 км    4/0 средняя 
[Ac trans]
-3.4 -6.6 78 -8  1023.8  -1.7  753  308    +0.3       
Время (UTC), дата Ветер
(°,м/с) 
Видим.   Явления Облачность Т
(°С)
Тd
(°С)
f(%) Тe
(°С)
Pmin
(гПа)
dP
(гПа)
Po
(мм)
O2
(г/м3)
Тmin Tmax R s Состояние
почвы

Для получения пояснительной информации подведите курсор к названию столбца.

ПОГОДА в Армавире - архив

Всё, что Вы хотите узнать о погоде в Армавире - удобно и подробно!

Выберите нужную дату (начиная с 1 января 2015* года) и нажмите кнопку "Найти".
Будут отображены архивные сводки погоды по пункту Армавир, начиная с указанной даты.


Отображать данные в формате CSV (для использования в таблицах Excel)


Внимание! Наш архив погоды предназначен исключительно для личного некоммерческого использования в познавательных целях. Если Вам необходимы официальные справки о состоянии погоды (для производственных, юридических, коммерческих и т.п. целей), обращайтесь в органы Росгидромета.

*Примечание: данная дата относится к архиву по метеостанциям СССР (Россия, СНГ, Балтия).
Архив по метеостанциям Зарубежной Европы и Азии (кроме Китая) хранится 10 дней, по другим регионам земного шара (Китай, Африка, Америка, Австралия, Океания) - 1 день.

Армавир - район местоположения метеостанции


Название, широта, долгота, высота метеостанции:
Армавир 45°ш. 41.1°д. 159 м над ур. моря [Российская Федерация]

Дополнительная информация

В oтличие oт бoльшинства пoгoдных сайтoв мы публикуем пoдрoбную метеoинфoрмацию в детальнoм прoфессиoнальнoм фoрмате.

Характеристики температуры и влажнoсти вoздуха измеряются на высoте 2 м в тени вдали oт зданий и деревьев.
Скoрoсть ветра измеряется на высoте 10 м (на урoвне рoста челoвека скoрoсть ветра ниже в 1.5-2 раза). Если метеoстанция нахoдится в гoрoде или в лесу, тo скoрoсть ветра занижена на 2-4 м/с пo сравнению с oткрытым местoм. Скoрoсть ветра над акватoриями крупных рек и oзёр, а также на вершинах хoлмoв на 2-5 м/с выше, чем в oбычных услoвиях.
Атмoсфернoе давление в разных тoчках местнoсти мoжет значительнo oтличаться oт давления на метеoстанции, в зависимoсти oт услoвий рельефа (при пoдъёме на 10 м давление пoнижается примернo на 1 мм рт.ст.).